This is the latest recevied weather packets stored in our database for station/object KA1AL. If no packets are shown the sender has not sent any weather packets the latest 1 day(s).
| Time | Temp. | Humidity | Pressure | Rain* | Wind** | Luminosity | Snow |
|---|---|---|---|---|---|---|---|
| 1778098323 | 12.22° C | 99% | 1005.2 hPa | 10.67 mm | - | 38 W/m² | - |
| 1778097109 | 12.78° C | 99% | 1005.7 hPa | 7.87 mm | - | 6 W/m² | - |
| 1778096807 | 12.78° C | 99% | 1005.4 hPa | 10.67 mm | - | 13 W/m² | - |
| 1778096503 | 12.78° C | 99% | 1005.4 hPa | 21.08 mm | - | 20 W/m² | - |
| 1778096201 | 12.78° C | 99% | 1005.8 hPa | 25.91 mm | - | 38 W/m² | - |
| 1778095898 | 12.78° C | 99% | 1005.8 hPa | 21.59 mm | - | 19 W/m² | - |
| 1778093775 | 12.78° C | 99% | 1005.6 hPa | 6.6 mm | - | 15 W/m² | - |
| 1778093471 | 12.78° C | 99% | 1005.5 hPa | 4.83 mm | - | 15 W/m² | - |
| 1778092866 | 12.78° C | 99% | 1005.8 hPa | 3.05 mm | - | 21 W/m² | - |
| 1778091956 | 12.78° C | 99% | 1006.1 hPa | 3.05 mm | - | 30 W/m² | - |
| 1778091351 | 12.78° C | 99% | 1005.9 hPa | 3.05 mm | - | 75 W/m² | - |
| 1778090441 | 12.78° C | 99% | 1006.7 hPa | 3.05 mm | - | 28 W/m² | - |
| 1778089533 | 12.22° C | 99% | 1006.6 hPa | 1.78 mm | - | 80 W/m² | - |
| 1778088926 | 12.22° C | 99% | 1006.5 hPa | 1.27 mm | - | 53 W/m² | - |
| 1778088320 | 12.22° C | 99% | 1006.6 hPa | 1.78 mm | - | 92 W/m² | - |
| 1778088016 | 12.78° C | 99% | 1006.5 hPa | 3.05 mm | - | 106 W/m² | - |
| 1778087714 | 12.22° C | 99% | 1006.6 hPa | 1.27 mm | - | 134 W/m² | - |
| 1778087411 | 12.22° C | 99% | 1006.8 hPa | 1.78 mm | - | 146 W/m² | - |
| 1778086200 | 12.22° C | 99% | 1007.6 hPa | 1.78 mm | - | 93 W/m² | - |
| 1778084078 | 12.22° C | 99% | 1008 hPa | 3.05 mm | - | 101 W/m² | - |
| 1778083472 | 12.78° C | 99% | 1008 hPa | 0 mm | - | 72 W/m² | - |
| 1778079023 | 12.78° C | 95% | 1008.1 hPa | 0 mm | - | 204 W/m² | - |
| 1778078417 | 12.78° C | 96% | 1008 hPa | 0 mm | - | 214 W/m² | - |
| 1778077813 | 12.78° C | 97% | 1007.9 hPa | 0 mm | - | 175 W/m² | - |
| 1778077510 | 12.22° C | 98% | 1008.2 hPa | 0 mm | - | 190 W/m² | - |
* Rain latest hour (hover to see other rain measurements)
** Current wind speed in m/s (hover to see current wind gust speed)